Time,TemperatureF,DewpointF,PressureIn,WindDirection,WindDirectionDegrees,WindSpeedMPH,WindSpeedGustMPH,Humidity,HourlyPrecipIn,Conditions,Clouds,dailyrainin,SolarRadiationWatts/m^2,SoftwareType,DateUTC
2013-05-03 00:10:00,35.7,34.0,30.35,NNW,344,1.0,2.0,93,0.00,,,0.00,0,weatherlink.com 1.10,2013-05-03 05:10:00,
2013-05-03 00:25:00,35.8,34.0,30.33,NNW,344,0.0,2.0,93,0.00,,,0.00,0,weatherlink.com 1.10,2013-05-03 05:25:00,
2013-05-03 00:40:00,35.9,34.0,30.33,NNW,344,0.0,2.0,93,0.00,,,0.00,0,weatherlink.com 1.10,2013-05-03 05:40:00,
2013-05-03 00:55:00,36.1,34.0,30.32,NNW,344,1.0,2.0,93,0.00,,,0.00,0,weatherlink.com 1.10,2013-05-03 05:55:00,
2013-05-03 01:10:00,36.2,34.0,30.33,NNW,344,0.0,3.0,93,0.00,,,0.00,0,weatherlink.com 1.10,2013-05-03 06:10:00,
2013-05-03 01:25:00,36.4,35.0,30.32,NNW,344,0.0,1.0,93,0.00,,,0.00,0,weatherlink.com 1.10,2013-05-03 06:25:00,
2013-05-03 01:40:00,36.6,35.0,30.31,NNW,344,1.0,2.0,93,0.00,,,0.00,0,weatherlink.com 1.10,2013-05-03 06:40:00,
2013-05-03 01:55:00,36.7,35.0,30.29,NNW,344,2.0,2.0,93,0.00,,,0.00,0,weatherlink.com 1.10,2013-05-03 06:55:00,
2013-05-03 02:10:00,36.8,35.0,30.29,NNW,344,0.0,2.0,93,0.00,,,0.00,0,weatherlink.com 1.10,2013-05-03 07:10:00,
2013-05-03 02:25:00,36.9,35.0,30.28,NNW,344,0.0,0.0,93,0.00,,,0.00,0,weatherlink.com 1.10,2013-05-03 07:25:00,
2013-05-03 02:40:00,37.1,35.0,30.27,NNW,344,0.0,2.0,93,0.00,,,0.00,0,weatherlink.com 1.10,2013-05-03 07:40:00,
2013-05-03 02:55:00,37.2,35.0,30.26,NNW,344,0.0,2.0,93,0.00,,,0.00,0,weatherlink.com 1.10,2013-05-03 07:55:00,
2013-05-03 03:10:00,37.2,35.0,30.27,NNW,344,0.0,1.0,93,0.00,,,0.00,0,weatherlink.com 1.10,2013-05-03 08:10:00,
2013-05-03 03:25:00,37.3,36.0,30.27,NNW,344,0.0,3.0,93,0.00,,,0.00,0,weatherlink.com 1.10,2013-05-03 08:25:00,
2013-05-03 03:40:00,37.3,36.0,30.26,NNW,344,0.0,1.0,93,0.00,,,0.00,0,weatherlink.com 1.10,2013-05-03 08:40:00,
2013-05-03 03:55:00,37.3,36.0,30.25,NNW,344,0.0,1.0,93,0.00,,,0.00,0,weatherlink.com 1.10,2013-05-03 08:55:00,
2013-05-03 04:10:00,37.1,35.0,30.24,NNW,344,0.0,2.0,93,0.00,,,0.00,0,weatherlink.com 1.10,2013-05-03 09:10:00,
2013-05-03 04:25:00,37.2,35.0,30.25,NNW,344,0.0,2.0,93,0.00,,,0.00,0,weatherlink.com 1.10,2013-05-03 09:25:00,
2013-05-03 04:40:00,37.3,36.0,30.25,NNW,344,0.0,2.0,93,0.00,,,0.00,0,weatherlink.com 1.10,2013-05-03 09:40:00,
2013-05-03 04:55:00,37.4,36.0,30.22,NNE,15,0.0,4.0,93,0.00,,,0.00,0,weatherlink.com 1.10,2013-05-03 09:55:00,
2013-05-03 05:10:00,37.6,36.0,30.23,NNW,334,0.0,6.0,92,0.00,,,0.00,0,weatherlink.com 1.10,2013-05-03 10:10:00,
2013-05-03 05:25:00,37.9,35.0,30.22,North,355,2.0,6.0,90,0.00,,,0.00,0,weatherlink.com 1.10,2013-05-03 10:25:00,
2013-05-03 05:40:00,38.0,35.0,30.21,NNE,26,2.0,6.0,88,0.00,,,0.00,0,weatherlink.com 1.10,2013-05-03 10:40:00,
2013-05-03 05:55:00,38.2,35.0,30.23,NW,319,0.0,5.0,87,0.00,,,0.00,0,weatherlink.com 1.10,2013-05-03 10:55:00,
2013-05-03 06:10:00,38.3,35.0,30.23,NW,309,1.0,5.0,86,0.00,,,0.00,0,weatherlink.com 1.10,2013-05-03 11:10:00,
2013-05-03 06:25:00,38.3,34.0,30.24,NE,55,2.0,7.0,85,0.01,,,0.01,0,weatherlink.com 1.10,2013-05-03 11:25:00,
2013-05-03 06:40:00,38.4,34.0,30.23,NE,41,0.0,9.0,84,0.01,,,0.01,7,weatherlink.com 1.10,2013-05-03 11:40:00,
2013-05-03 06:55:00,38.5,34.0,30.23,NNE,18,2.0,5.0,84,0.01,,,0.01,25,weatherlink.com 1.10,2013-05-03 11:55:00,
2013-05-03 07:10:00,38.5,34.0,30.23,NE,38,4.0,9.0,84,0.01,,,0.01,25,weatherlink.com 1.10,2013-05-03 12:10:00,
2013-05-03 07:26:00,38.6,34.0,30.21,NE,55,2.0,10.0,84,0.00,,,0.01,42,weatherlink.com 1.10,2013-05-03 12:26:00,
2013-05-03 07:41:00,38.7,34.0,30.22,East,83,3.0,6.0,83,0.00,,,0.01,47,weatherlink.com 1.10,2013-05-03 12:41:00,
2013-05-03 07:56:00,38.9,34.0,30.20,NNE,21,3.0,10.0,83,0.00,,,0.01,104,weatherlink.com 1.10,2013-05-03 12:56:00,
2013-05-03 08:11:00,39.1,34.0,30.20,North,5,3.0,10.0,82,0.00,,,0.01,98,weatherlink.com 1.10,2013-05-03 13:11:00,
2013-05-03 08:26:00,39.5,34.0,30.19,NNE,13,1.0,12.0,82,0.00,,,0.01,141,weatherlink.com 1.10,2013-05-03 13:26:00,
2013-05-03 08:41:00,39.3,34.0,30.19,WSW,246,6.0,13.0,82,0.00,,,0.01,100,weatherlink.com 1.10,2013-05-03 13:41:00,
2013-05-03 08:56:00,39.2,34.0,30.18,NW,309,2.0,15.0,82,0.00,,,0.01,127,weatherlink.com 1.10,2013-05-03 13:56:00,
2013-05-03 09:11:00,39.5,34.0,30.18,NW,311,2.0,12.0,81,0.00,,,0.01,144,weatherlink.com 1.10,2013-05-03 14:11:00,
2013-05-03 09:26:00,39.7,34.0,30.18,WNW,300,2.0,11.0,81,0.00,,,0.01,118,weatherlink.com 1.10,2013-05-03 14:26:00,
2013-05-03 09:41:00,39.9,34.0,30.17,West,278,3.0,12.0,80,0.00,,,0.01,181,weatherlink.com 1.10,2013-05-03 14:41:00,
2013-05-03 09:56:00,40.0,34.0,30.16,West,275,5.0,10.0,79,0.00,,,0.01,165,weatherlink.com 1.10,2013-05-03 14:56:00,
2013-05-03 10:11:00,40.0,34.0,30.16,NNW,344,5.0,12.0,79,0.00,,,0.01,190,weatherlink.com 1.10,2013-05-03 15:11:00,
2013-05-03 10:26:00,39.9,34.0,30.16,West,277,5.0,14.0,78,0.00,,,0.01,171,weatherlink.com 1.10,2013-05-03 15:26:00,
2013-05-03 10:41:00,40.3,34.0,30.16,NW,319,2.0,12.0,79,0.00,,,0.01,200,weatherlink.com 1.10,2013-05-03 15:41:00,
2013-05-03 10:56:00,40.5,34.0,30.16,NW,311,4.0,11.0,78,0.00,,,0.01,183,weatherlink.com 1.10,2013-05-03 15:56:00,
2013-05-03 11:11:00,40.6,34.0,30.16,WNW,294,6.0,13.0,77,0.00,,,0.01,192,weatherlink.com 1.10,2013-05-03 16:11:00,
2013-05-03 11:26:00,40.7,34.0,30.15,NE,49,8.0,17.0,76,0.00,,,0.01,214,weatherlink.com 1.10,2013-05-03 16:26:00,
2013-05-03 11:41:00,41.0,34.0,30.15,North,5,3.0,16.0,76,0.00,,,0.01,192,weatherlink.com 1.10,2013-05-03 16:41:00,
2013-05-03 11:56:00,40.8,33.0,30.15,ENE,75,5.0,14.0,74,0.00,,,0.01,160,weatherlink.com 1.10,2013-05-03 16:56:00,
2013-05-03 12:11:00,40.6,34.0,30.14,NNW,328,9.0,16.0,77,0.00,,,0.01,206,weatherlink.com 1.10,2013-05-03 17:11:00,
2013-05-03 12:26:00,40.4,34.0,30.14,ESE,109,2.0,14.0,78,0.00,,,0.01,218,weatherlink.com 1.10,2013-05-03 17:26:00,
2013-05-03 12:41:00,40.7,35.0,30.13,NNE,17,4.0,15.0,79,0.00,,,0.01,258,weatherlink.com 1.10,2013-05-03 17:41:00,
2013-05-03 12:56:00,40.8,35.0,30.12,NW,325,6.0,13.0,79,0.00,,,0.01,218,weatherlink.com 1.10,2013-05-03 17:56:00,
2013-05-03 13:11:00,40.6,35.0,30.12,WNW,300,3.0,13.0,80,0.00,,,0.01,211,weatherlink.com 1.10,2013-05-03 18:11:00,
2013-05-03 13:26:00,40.6,35.0,30.11,ENE,64,5.0,14.0,81,0.00,,,0.01,199,weatherlink.com 1.10,2013-05-03 18:26:00,
2013-05-03 13:41:00,40.2,35.0,30.10,NNW,331,2.0,15.0,82,0.00,,,0.01,209,weatherlink.com 1.10,2013-05-03 18:41:00,
2013-05-03 13:56:00,40.0,36.0,30.10,NW,304,4.0,12.0,84,0.01,,,0.02,211,weatherlink.com 1.10,2013-05-03 18:56:00,
2013-05-03 14:11:00,40.0,36.0,30.10,NNE,19,7.0,17.0,84,0.01,,,0.02,199,weatherlink.com 1.10,2013-05-03 19:11:00,
2013-05-03 14:26:00,39.8,35.0,30.09,WNW,294,7.0,13.0,83,0.01,,,0.02,211,weatherlink.com 1.10,2013-05-03 19:26:00,
2013-05-03 14:41:00,40.4,36.0,30.09,NNE,31,6.0,14.0,83,0.01,,,0.02,179,weatherlink.com 1.10,2013-05-03 19:41:00,
2013-05-03 14:56:00,40.7,35.0,30.09,West,268,6.0,12.0,81,0.00,,,0.02,162,weatherlink.com 1.10,2013-05-03 19:56:00,
2013-05-03 15:11:00,40.4,35.0,30.08,WNW,288,3.0,14.0,82,0.01,,,0.03,165,weatherlink.com 1.10,2013-05-03 20:11:00,
2013-05-03 15:26:00,40.3,36.0,30.08,North,10,6.0,12.0,83,0.01,,,0.03,169,weatherlink.com 1.10,2013-05-03 20:26:00,
2013-05-03 15:41:00,40.4,36.0,30.07,NW,322,8.0,13.0,84,0.01,,,0.03,174,weatherlink.com 1.10,2013-05-03 20:41:00,
2013-05-03 15:56:00,40.3,36.0,30.07,NW,326,3.0,15.0,85,0.02,,,0.04,171,weatherlink.com 1.10,2013-05-03 20:56:00,
2013-05-03 16:11:00,40.2,36.0,30.07,ENE,78,5.0,10.0,86,0.01,,,0.04,121,weatherlink.com 1.10,2013-05-03 21:11:00,
2013-05-03 16:26:00,39.3,36.0,30.06,NNW,344,3.0,14.0,86,0.01,,,0.04,114,weatherlink.com 1.10,2013-05-03 21:26:00,
2013-05-03 16:41:00,39.2,36.0,30.07,WSW,244,4.0,16.0,87,0.02,,,0.05,123,weatherlink.com 1.10,2013-05-03 21:41:00,
2013-05-03 16:57:00,39.3,36.0,30.06,West,263,2.0,10.0,87,0.01,,,0.05,116,weatherlink.com 1.10,2013-05-03 21:57:00,
2013-05-03 17:12:00,39.4,36.0,30.06,WSW,254,3.0,14.0,87,0.01,,,0.05,123,weatherlink.com 1.10,2013-05-03 22:12:00,
2013-05-03 17:27:00,39.4,36.0,30.05,NNE,20,4.0,12.0,87,0.01,,,0.05,93,weatherlink.com 1.10,2013-05-03 22:27:00,
2013-05-03 17:42:00,38.8,35.0,30.06,NNW,328,7.0,16.0,87,0.00,,,0.05,72,weatherlink.com 1.10,2013-05-03 22:42:00,
2013-05-03 17:57:00,38.8,36.0,30.05,East,96,2.0,12.0,88,0.00,,,0.05,67,weatherlink.com 1.10,2013-05-03 22:57:00,
2013-05-03 18:12:00,38.8,36.0,30.05,WNW,302,2.0,11.0,88,0.01,,,0.06,58,weatherlink.com 1.10,2013-05-03 23:12:00,
2013-05-03 18:27:00,38.8,36.0,30.05,WNW,302,7.0,10.0,89,0.01,,,0.06,54,weatherlink.com 1.10,2013-05-03 23:27:00,
2013-05-03 18:42:00,38.8,36.0,30.05,NW,305,2.0,10.0,89,0.01,,,0.06,23,weatherlink.com 1.10,2013-05-03 23:42:00,
2013-05-03 18:57:00,38.8,36.0,30.04,NW,310,2.0,10.0,88,0.01,,,0.06,21,weatherlink.com 1.10,2013-05-03 23:57:00,
2013-05-03 19:12:00,38.6,35.0,30.03,North,355,2.0,7.0,88,0.00,,,0.06,16,weatherlink.com 1.10,2013-05-04 00:12:00,
2013-05-03 19:27:00,38.4,36.0,30.04,NW,322,1.0,9.0,89,0.01,,,0.07,5,weatherlink.com 1.10,2013-05-04 00:27:00,
2013-05-03 19:42:00,38.3,35.0,30.02,NNW,335,4.0,9.0,89,0.02,,,0.08,5,weatherlink.com 1.10,2013-05-04 00:42:00,
2013-05-03 19:57:00,38.2,35.0,30.02,North,349,1.0,12.0,89,0.02,,,0.08,0,weatherlink.com 1.10,2013-05-04 00:57:00,
2013-05-03 20:12:00,38.0,35.0,30.02,NNE,17,5.0,9.0,90,0.03,,,0.09,0,weatherlink.com 1.10,2013-05-04 01:12:00,
2013-05-03 20:27:00,38.0,35.0,30.02,WNW,298,4.0,9.0,90,0.02,,,0.09,0,weatherlink.com 1.10,2013-05-04 01:27:00,
2013-05-03 20:42:00,37.8,35.0,30.01,North,351,6.0,8.0,90,0.02,,,0.10,0,weatherlink.com 1.10,2013-05-04 01:42:00,
2013-05-03 20:57:00,37.4,35.0,30.01,West,275,3.0,11.0,91,0.03,,,0.11,0,weatherlink.com 1.10,2013-05-04 01:57:00,
2013-05-03 21:12:00,37.2,35.0,30.00,NW,325,2.0,10.0,91,0.03,,,0.12,0,weatherlink.com 1.10,2013-05-04 02:12:00,
2013-05-03 21:27:00,37.2,35.0,30.00,NE,36,4.0,8.0,91,0.03,,,0.12,0,weatherlink.com 1.10,2013-05-04 02:27:00,
2013-05-03 21:42:00,37.0,35.0,30.00,NE,38,3.0,12.0,92,0.02,,,0.12,0,weatherlink.com 1.10,2013-05-04 02:42:00,
2013-05-03 21:57:00,37.0,35.0,29.99,North,355,2.0,9.0,92,0.02,,,0.13,0,weatherlink.com 1.10,2013-05-04 02:57:00,
2013-05-03 22:12:00,37.1,35.0,29.99,West,276,6.0,8.0,92,0.02,,,0.14,0,weatherlink.com 1.10,2013-05-04 03:12:00,
2013-05-03 22:27:00,37.1,35.0,29.98,North,355,12.0,12.0,92,0.03,,,0.15,0,weatherlink.com 1.10,2013-05-04 03:27:00,
2013-05-03 22:42:00,37.1,35.0,29.98,North,350,0.0,8.0,92,0.04,,,0.16,0,weatherlink.com 1.10,2013-05-04 03:42:00,
2013-05-03 22:57:00,37.2,35.0,29.97,NW,319,3.0,9.0,93,0.03,,,0.16,0,weatherlink.com 1.10,2013-05-04 03:57:00,
2013-05-03 23:12:00,37.3,36.0,29.96,NNE,15,3.0,7.0,93,0.02,,,0.16,0,weatherlink.com 1.10,2013-05-04 04:12:00,
2013-05-03 23:27:00,37.3,35.0,29.95,WNW,287,3.0,8.0,92,0.01,,,0.16,0,weatherlink.com 1.10,2013-05-04 04:27:00,
2013-05-03 23:42:00,37.3,35.0,29.94,NE,36,6.0,14.0,92,0.00,,,0.16,0,weatherlink.com 1.10,2013-05-04 04:42:00,
2013-05-03 23:57:00,37.1,35.0,29.94,NE,48,0.0,9.0,92,0.01,,,0.17,0,weatherlink.com 1.10,2013-05-04 04:57:00,